[[{"header":{"parameterUnit":"m.s-1","parameterCategory":1,"la1":30.2991,"la2":30.254,"lo1":-89.0895,"lo2":-89.0444,"dy":0.0017,"dx":0.0017,"nx":28,"ny":28,"refTime":"2023-07-20T09:00:00:Z","depth":0,"parameterNumber":2,"parameterNumberName":"U-component_of_WINDS"},"data":[0,0,0,0,0,0,0,0,0,0,0,0,0,0,0,0,0,0,0,0,0,0,0,0,0,0,0,0,0,0,0,0,0,0,0,0,0,0,0,0,0,0,0,0,0,0,0,0,0,0,0,0,0,0,0,0,0,0,0.893,0.8931,0,0.9082,0.9083,0.9085,0.9172,0.9172,0.9172,0.9173,0.9329,0.9333,0.9337,0,0,0,0,0,0,0,0,0,0,0,0,0,0.8716,0.8719,0.893,0.8932,0.8933,0.9081,0.9083,0.9085,0.9172,0.9172,0.9172,0.9173,0.9328,0.9332,0.9337,0,0,0,0,0,0,0,0,0,0,0,0,0,0.8832,0.8721,0.8929,0.8994,0.9002,0.9081,0.9083,0.9086,0.9171,0.9172,0.9172,0.9173,0.9326,0.9332,0.9338,0.9364,0,0,0.9356,0.9358,0,0,0,0,0,0,0,0,0.8826,0.884,0.8983,0.899,0.8998,0.9108,0.9066,0.9179,0.9171,0.9107,0.9173,0.9173,0.9255,0.9267,0.9294,0.9372,0.9379,0.9356,0.936,0.9362,0.9364,0,0,0,0,0,0,0,0.8817,0.8834,0.899,0.8985,0.8994,0.9016,0.9033,0.9087,0.9177,0.9113,0.9119,0.9136,0.926,0.9289,0.9299,0.9381,0.9356,0.9361,0.9365,0.9367,0.9489,0.9488,0,0,0,0,0,0,0.8799,0.8827,0.8985,0.8994,0.8911,0.902,0.9039,0.9072,0.9176,0.9193,0.9135,0.9139,0.9278,0.9292,0.9305,0.9343,0.9362,0.9367,0.9371,0.9489,0.9489,0.9488,0,0,0,0,0,0,0.8794,0.8812,0.8979,0.8912,0.8935,0.9023,0.906,0.9075,0.9104,0.9194,0.921,0.9149,0.9279,0.9296,0.9349,0.935,0.937,0.9375,0.9489,0.9489,0.9488,0.9419,0,0,0,0,0,0,0.8787,0.881,0.882,0.8912,0.8939,0.902,0.906,0.9078,0.9114,0.9121,0.921,0.9226,0.9281,0.934,0.9355,0.9358,0.938,0.9489,0.9489,0.9489,0.9422,0.9416,0.9412,0,0,0,0,0,0.8779,0.8795,0.882,0.8839,0.8953,0.902,0.9035,0.9098,0.9114,0.9125,0.9183,0.9223,0.9347,0.9344,0.9362,0.9367,0.949,0.9489,0.9489,0.9424,0.9417,0.9412,0,0,0,0,0,0,0.8701,0.8808,0.8837,0.8883,0.8942,0.9034,0.9051,0.9089,0.9145,0.9149,0.9225,0.9245,0.929,0.9334,0.9329,0.9399,0.9423,0.9426,0.9368,0.9362,0.9358,0.9345,0.9385,0,0,0,0,0,0.8689,0.8733,0.8825,0.8856,0.8884,0.8962,0.8993,0.9037,0.9101,0.9126,0.9188,0.9248,0.9301,0.9335,0.9388,0.9429,0.945,0.9441,0.9436,0.9432,0.9433,0.9458,0.9455,0.9486,0.9486,0.9486,0,0,0.8664,0.8729,0.8752,0.8842,0.8893,0.8937,0.8982,0.9028,0.9062,0.9133,0.9186,0.9234,0.9307,0.9353,0.9377,0.9392,0.9429,0.9431,0.9427,0.9431,0.9457,0.9454,0.9451,0.9486,0.9486,0.9486,0,0,0.8643,0.8696,0.8728,0.8777,0.8853,0.8906,0.8913,0.9,0.9034,0.9089,0.9144,0.9186,0.9275,0.9325,0.9362,0.936,0.9399,0.9376,0.9349,0.9373,0.9371,0.9369,0.9368,0.9367,0.9377,0.9377,0.9377,0,0.8603,0.8672,0.8739,0.8782,0.882,0.8887,0.892,0.8965,0.9055,0.908,0.9095,0.9209,0.9263,0.9322,0.9322,0.935,0.9361,0.9365,0.9365,0.9364,0.9364,0.9364,0.9363,0.9373,0.9374,0.9374,0.9374,0,0.8619,0.8666,0.8683,0.8767,0.8808,0.8845,0.8919,0.8952,0.8992,0.9043,0.9098,0.9165,0.9233,0.9251,0.9291,0.9316,0.9323,0.9351,0.9376,0.9356,0.9357,0.9358,0.9369,0.937,0.9371,0.9372,0,0,0.855,0.8672,0.8677,0.8717,0.8806,0.8844,0.8885,0.8952,0.8979,0.9039,0.9075,0.915,0.9176,0.9218,0.9265,0.9285,0.9279,0.9311,0.9314,0.9302,0.9311,0.9289,0.9288,0.9306,0.9306,0.9307,0.9305,0,0.854,0.8617,0.8679,0.8732,0.8777,0.8842,0.8878,0.8937,0.8985,0.9031,0.9085,0.9136,0.9167,0.9193,0.9217,0.9275,0.9282,0.9276,0.9341,0.9342,0.9319,0.9288,0.9265,0.926,0.9306,0.9306,0.9306,0,0.8539,0.8596,0.8653,0.8739,0.876,0.8791,0.8858,0.89,0.8969,0.9003,0.905,0.9099,0.9145,0.9167,0.9233,0.9227,0.9258,0.9291,0.9292,0.93,0.9322,0.9294,0.926,0.9259,0.9308,0.9307,0.9307,0,0.8482,0.8574,0.862,0.8652,0.8753,0.8773,0.8816,0.8886,0.8922,0.8981,0.9005,0.9068,0.9103,0.9151,0.9216,0.9226,0.9275,0.9302,0.9304,0.9302,0.931,0.9309,0.9279,0.9331,0.9331,0.9331,0.9331,0,0.8464,0.8496,0.8596,0.8624,0.8663,0.8735,0.8771,0.882,0.8881,0.892,0.8981,0.9017,0.9101,0.9147,0.9198,0.9244,0.926,0.9289,0.9302,0.9283,0.9279,0.9303,0.9304,0.9331,0.9331,0.9331,0.9331,0,0.8406,0.8474,0.8529,0.8621,0.8645,0.8669,0.8747,0.8778,0.883,0.8879,0.8895,0.8977,0.9035,0.9104,0.9184,0.9219,0.926,0.928,0.9237,0.9244,0.9242,0.9241,0.9226,0.9228,0.9279,0.9278,0.9278,0,0.839,0.8416,0.8511,0.8541,0.8583,0.8631,0.8669,0.8742,0.8778,0.8859,0.888,0.8942,0.8995,0.9084,0.9151,0.9213,0.9234,0.9225,0.9244,0.9224,0.9233,0.923,0.9233,0.9219,0.9218,0.9218,0.9217,0,0.8353,0.8385,0.8437,0.8501,0.8544,0.8598,0.8654,0.8676,0.8761,0.8799,0.8858,0.8899,0.8981,0.9042,0.9112,0.9158,0.9201,0.9211,0.9215,0.9195,0.9168,0.9182,0.9222,0.921,0.9211,0.9212,0.9212,0.9212,0.8315,0.8341,0.8412,0.8468,0.8518,0.857,0.8603,0.866,0.871,0.8782,0.8823,0.8881,0.895,0.9049,0.9093,0.914,0.9155,0.9161,0.9162,0.9162,0.9156,0.9161,0.9153,0.9153,0.9154,0.9154,0.9154,0,0.828,0.8329,0.838,0.8457,0.8501,0.8539,0.8604,0.8638,0.8688,0.8749,0.8801,0.8869,0.8929,0.9001,0.9066,0.9089,0.9111,0.9104,0.9102,0.9112,0.9138,0.9128,0.9085,0.9085,0.9085,0.9085,0.9085,0.9085,0.8267,0.8314,0.8355,0.8428,0.8478,0.8535,0.8568,0.8617,0.8666,0.8739,0.8789,0.8836,0.8902,0.8972,0.9028,0.9048,0.9069,0.9055,0.9081,0.9104,0.911,0.9116,0.9107,0.9059,0.9059,0.905,0.905,0.905]},{"header":{"parameterUnit":"m.s-1","parameterCategory":1,"la1":30.2991,"la2":30.254,"lo1":-89.0895,"lo2":-89.0444,"dy":0.0017,"dx":0.0017,"nx":28,"ny":28,"refTime":"2023-07-20T09:00:00:Z","depth":0,"parameterNumber":3,"parameterNumberName":"V-component_of_WINDS"},"data":[0,0,0,0,0,0,0,0,0,0,0,0,0,0,0,0,0,0,0,0,0,0,0,0,0,0,0,0,0,0,0,0,0,0,0,0,0,0,0,0,0,0,0,0,0,0,0,0,0,0,0,0,0,0,0,0,0,0,3.7747,3.7746,0,3.7675,3.7674,3.7673,3.7637,3.7637,3.7637,3.7637,3.7557,3.7555,3.7553,0,0,0,0,0,0,0,0,0,0,0,0,0,3.7847,3.7845,3.7747,3.7746,3.7745,3.7675,3.7674,3.7673,3.7637,3.7637,3.7637,3.7637,3.7558,3.7555,3.7553,0,0,0,0,0,0,0,0,0,0,0,0,0,3.7792,3.7845,3.7747,3.7719,3.7716,3.7675,3.7674,3.7673,3.7637,3.7637,3.7637,3.7637,3.7558,3.7555,3.7552,3.7533,0,0,3.7542,3.7541,0,0,0,0,0,0,0,0,3.7795,3.7788,3.7724,3.7721,3.7717,3.7665,3.768,3.7626,3.7637,3.7667,3.7637,3.7637,3.7592,3.7586,3.7573,3.7529,3.7525,3.7542,3.754,3.7539,3.7538,0,0,0,0,0,0,0,3.7799,3.7791,3.7718,3.7723,3.7719,3.7708,3.77,3.7669,3.763,3.7664,3.7661,3.7654,3.759,3.7576,3.7571,3.7524,3.7542,3.7539,3.7537,3.7536,3.7459,3.7458,0,0,0,0,0,0,3.7808,3.7794,3.7721,3.7716,3.7757,3.7706,3.7697,3.7682,3.7631,3.7623,3.7654,3.7652,3.7581,3.7574,3.7568,3.754,3.7539,3.7536,3.7534,3.7459,3.7459,3.7458,0,0,0,0,0,0,3.781,3.7802,3.7724,3.7755,3.7744,3.7704,3.7687,3.768,3.7666,3.7623,3.7615,3.7646,3.7581,3.7572,3.7542,3.7537,3.7534,3.7532,3.7459,3.7459,3.7458,3.7487,0,0,0,0,0,0,3.7813,3.7803,3.7797,3.7755,3.7742,3.7701,3.7687,3.7679,3.7661,3.7658,3.7614,3.7606,3.758,3.7547,3.7539,3.7533,3.7529,3.7459,3.7459,3.7459,3.7486,3.7488,3.7489,0,0,0,0,0,3.7817,3.7807,3.7797,3.7788,3.7734,3.7701,3.7693,3.7666,3.7661,3.7653,3.7625,3.7608,3.7539,3.7544,3.7534,3.7528,3.7459,3.7459,3.7459,3.7485,3.7487,3.7489,0,0,0,0,0,0,3.7847,3.7801,3.7789,3.7765,3.7738,3.7695,3.7685,3.7669,3.764,3.7639,3.7603,3.7593,3.7566,3.7543,3.7549,3.7505,3.7497,3.7495,3.7521,3.7522,3.7524,3.7529,3.7526,0,0,0,0,0,3.7851,3.7831,3.779,3.7772,3.7759,3.7725,3.7709,3.769,3.7659,3.7646,3.7616,3.7585,3.7556,3.7538,3.7509,3.7483,3.7471,3.7473,3.7474,3.7476,3.7474,3.7457,3.7457,3.7457,3.7457,3.7457,0,0,3.7859,3.7831,3.782,3.7778,3.7754,3.7731,3.7715,3.7691,3.7673,3.7642,3.7612,3.7589,3.7551,3.7522,3.7508,3.7503,3.7471,3.7475,3.7477,3.7474,3.7456,3.7456,3.7456,3.7457,3.7457,3.7457,0,0,3.7862,3.7839,3.7822,3.7799,3.7764,3.774,3.7736,3.7696,3.768,3.7649,3.7625,3.7602,3.7553,3.7527,3.7508,3.7499,3.7481,3.7491,3.7498,3.7481,3.7481,3.7481,3.7477,3.7476,3.7489,3.7489,3.7489,0,3.7875,3.7842,3.7814,3.7792,3.7774,3.7746,3.7727,3.7705,3.7662,3.7648,3.7644,3.7582,3.7555,3.7519,3.7517,3.7502,3.7495,3.7496,3.7484,3.7483,3.7483,3.7478,3.7477,3.7491,3.749,3.749,3.749,0,3.786,3.7837,3.7826,3.7787,3.7767,3.7747,3.7714,3.7697,3.7679,3.7656,3.7624,3.759,3.7554,3.7544,3.7525,3.7504,3.7502,3.7491,3.7483,3.7485,3.748,3.7478,3.7492,3.7492,3.7492,3.7491,0,0,3.7879,3.7825,3.7822,3.7803,3.7762,3.7743,3.772,3.7686,3.7671,3.7642,3.762,3.758,3.7569,3.7547,3.7525,3.7511,3.7505,3.7501,3.75,3.7502,3.7478,3.7487,3.7485,3.7493,3.7493,3.7492,3.7481,0,3.7876,3.7836,3.781,3.778,3.7757,3.773,3.771,3.7681,3.7658,3.7634,3.7607,3.7579,3.7567,3.7554,3.7538,3.7509,3.7499,3.751,3.7471,3.747,3.7481,3.7483,3.7492,3.7483,3.7479,3.7479,3.7478,0,3.7866,3.7839,3.7808,3.7768,3.7758,3.774,3.7707,3.7684,3.765,3.7634,3.7609,3.7587,3.756,3.7554,3.7513,3.7521,3.7503,3.7486,3.7485,3.748,3.7474,3.7477,3.748,3.7478,3.7475,3.7476,3.7476,0,3.7883,3.7839,3.7814,3.7798,3.7752,3.774,3.772,3.7686,3.7667,3.7637,3.7624,3.759,3.7571,3.7544,3.7512,3.7511,3.7475,3.7466,3.7459,3.746,3.7453,3.7453,3.7452,3.7442,3.7442,3.7442,3.7442,0,3.7881,3.7862,3.7821,3.7805,3.7783,3.7752,3.7729,3.7706,3.7676,3.7654,3.7628,3.7607,3.7567,3.7541,3.7515,3.7485,3.7477,3.7462,3.7455,3.7464,3.7466,3.7452,3.7451,3.7442,3.7442,3.7442,3.7442,0,3.7896,3.7868,3.7838,3.7797,3.7786,3.7772,3.7735,3.7718,3.7693,3.7665,3.7657,3.7618,3.7585,3.7551,3.7506,3.7489,3.746,3.7451,3.7472,3.7468,3.7463,3.7463,3.7451,3.7448,3.7441,3.7441,3.7442,0,3.7897,3.7882,3.784,3.7824,3.7805,3.778,3.7761,3.7729,3.771,3.7669,3.7656,3.7622,3.7593,3.7542,3.7508,3.7473,3.7463,3.7461,3.7457,3.7466,3.7462,3.7463,3.746,3.7462,3.7462,3.7462,3.7463,0,3.7901,3.7888,3.7862,3.7832,3.781,3.7784,3.7756,3.7744,3.7706,3.7685,3.7653,3.7631,3.7586,3.7551,3.7512,3.7488,3.7468,3.7464,3.746,3.7469,3.7482,3.7474,3.7475,3.7464,3.7464,3.7464,3.7464,3.7464,3.7908,3.7894,3.7862,3.7834,3.781,3.7785,3.7767,3.774,3.7714,3.7676,3.7658,3.7625,3.7589,3.7535,3.7512,3.7483,3.7478,3.7473,3.7471,3.747,3.7472,3.7487,3.7476,3.7476,3.7476,3.7476,3.7476,0,3.791,3.7889,3.7863,3.7827,3.7804,3.779,3.7758,3.774,3.7712,3.7681,3.7654,3.7615,3.7582,3.7545,3.7509,3.7493,3.7483,3.7484,3.7485,3.7479,3.748,3.7486,3.7493,3.7493,3.7493,3.7493,3.7493,3.7493,3.7909,3.7883,3.7866,3.7827,3.7804,3.7774,3.7757,3.7733,3.7708,3.7668,3.764,3.7617,3.7583,3.7544,3.7512,3.7501,3.7489,3.7493,3.748,3.7481,3.748,3.7478,3.7484,3.7491,3.7491,3.7482,3.7482,3.7482]}]]